FW4376 Weather Reports


time (UTC)temp
F
wind
direction
speed
knots
gust
knots
rain 1hr
in
rain 24hr
in
rain mn
in
humidity
%
barometer
mb
20260510030045 76 120 0.0 1.7 0.00 0.00 0.00 76 1009.1
20260510024545 76 126 0.0 1.7 0.00 0.00 0.00 75 1009.1
20260510023045 77 109 0.0 0.9 0.00 0.00 0.00 74 1009.1
20260510021635 77 203 0.0 0.9 0.00 0.00 0.00 73 1008.9
20260510020044 78 117 0.0 1.7 0.00 0.00 0.00 71 1008.8
20260510014553 80 122 0.0 0.9 0.00 0.00 0.00 68 1008.7
20260510013053 81 169 0.0 2.6 0.00 0.00 0.00 67 1008.4
20260510011542 82 120 0.0 1.7 0.00 0.00 0.00 65 1008.3
20260510010050 82 120 0.0 2.6 0.00 0.00 0.00 63 1008.1
20260510004541 83 128 0.0 1.7 0.00 0.00 0.00 61 1008.0
20260510003041 84 141 0.0 1.7 0.00 0.00 0.00 59 1008.0
20260510001540 85 122 0.0 2.6 0.00 0.00 0.00 57 1008.1
20260510000039 85 300 0.0 1.7 0.00 0.00 0.00 56 1007.9
20260509234538 86 129 0.0 2.6 0.00 0.00 0.00 54 1007.8
20260509233037 86 99 0.9 2.6 0.00 0.00 0.00 53 1007.9
20260509231537 87 351 0.0 1.7 0.00 0.00 0.00 52 1007.9
20260509230040 89 137 0.0 2.6 0.00 0.00 0.00 48 1007.9
20260509224536 91 122 0.0 3.5 0.00 0.00 0.00 46 1007.8
20260509223037 92 235 0.0 2.6 0.00 0.00 0.00 46 1007.7
20260509221538 92 117 0.0 2.6 0.00 0.00 0.00 47 1007.8
20260509220031 91 342 0.0 3.5 0.00 0.00 0.00 46 1007.8
20260509214530 91 133 0.0 3.5 0.00 0.00 0.00 43 1007.9
20260509213031 91 91 0.9 3.5 0.00 0.00 0.00 49 1008.1
20260509211525 90 342 0.9 3.5 0.00 0.00 0.00 52 1008.2
20260509210023 90 267 0.9 3.5 0.00 0.00 0.00 52 1008.4
20260509204521 89 23 0.0 2.6 0.00 0.00 0.00 55 1008.7
20260509203025 89 212 0.9 2.6 0.00 0.00 0.00 56 1009.1
20260509201521 90 13 0.9 5.2 0.00 0.00 0.00 56 1009.1
20260509200019 89 123 0.9 5.2 0.00 0.00 0.00 58 1009.2
20260509194530 89 119 0.0 2.6 0.00 0.00 0.00 58 1009.3
20260509193022 88 359 0.9 4.3 0.00 0.00 0.00 61 1009.3
20260509191514 88 68 0.9 3.5 0.00 0.00 0.00 61 1009.4
20260509190012 88 95 0.9 3.5 0.00 0.00 0.00 61 1009.6
20260509184511 87 283 0.9 4.3 0.00 0.00 0.00 63 1009.5
20260509183013 87 1 0.9 2.6 0.00 0.00 0.00 63 1009.7
20260509181507 87 121 1.7 4.3 0.00 0.00 0.00 64 1009.8
20260509180005 86 281 0.9 4.3 0.00 0.00 0.00 67 1010.1
20260509174505 86 340 0.9 3.5 0.00 0.00 0.00 65 1010.2
20260509173002 86 278 1.7 3.5 0.00 0.00 0.00 65 1010.3
20260509171600 85 37 0.9 2.6 0.00 0.00 0.00 67 1010.5
20260509170057 84 268 0.9 4.3 0.00 0.00 0.00 68 1010.5
20260509164554 83 262 0.0 4.3 0.00 0.00 0.00 71 1010.4
20260509163056 82 314 1.7 4.3 0.00 0.00 0.00 71 1010.5
20260509161600 82 346 0.0 2.6 0.00 0.00 0.00 72 1010.6
20260509160048 81 217 0.0 3.5 0.00 0.00 0.00 74 1010.5
20260509154548 80 240 0.9 4.3 0.00 0.00 0.00 74 1010.2
20260509153055 79 255 0.0 3.5 0.00 0.00 0.00 75 1010.2
20260509151542 78 212 0.0 4.3 0.00 0.00 0.00 77 1010.3
20260509150039 78 307 0.9 4.3 0.00 0.00 0.00 77 1010.3
20260509144539 76 167 0.9 4.3 0.00 0.00 0.00 79 1010.3
20260509143033 75 249 0.9 3.5 0.00 0.00 0.00 82 1010.3
20260509141537 75 218 0.0 1.7 0.00 0.00 0.00 82 1010.2
20260509140027 74 47 0.0 4.3 0.00 0.00 0.00 85 1010.1
20260509134526 73 251 0.9 4.3 0.00 0.00 0.00 86 1010.0
20260509133026 73 196 0.0 1.7 0.00 0.00 0.00 89 1010.0
20260509131522 71 250 0.0 1.7 0.00 0.00 0.00 93 1009.9
20260509130017 70 93 0.0 0.9 0.00 0.00 0.00 94 1009.8
20260509124518 69 105 0.0 0.9 0.00 0.00 0.00 93 1009.9
20260509123016 69 119 0.0 0.9 0.00 0.00 0.00 93 1010.0
20260509121515 70 113 0.0 0.9 0.00 0.00 0.00 92 1009.9
20260509120015 70 156 0.0 0.9 0.00 0.00 0.00 92 1009.8
20260509114514 70 131 0.0 0.9 0.00 0.00 0.00 92 1009.8
20260509113014 70 130 0.0 0.9 0.00 0.00 0.00 92 1009.6
20260509111513 70 252 0.9 3.5 0.00 0.00 0.00 92 1009.4
20260509110012 70 244 0.0 1.7 0.00 0.00 0.00 92 1009.2
20260509104512 70 263 0.0 0.9 0.00 0.00 0.00 92 1009.1
20260509103011 70 28 0.0 0.0 0.00 0.00 0.00 92 1009.0
20260509101514 70 31 0.0 0.9 0.00 0.00 0.00 92 1009.1
20260509100011 70 32 0.0 0.9 0.00 0.00 0.00 92 1008.6
20260509094509 70 127 0.0 3.5 0.00 0.00 0.00 92 1008.3
20260509093010 69 131 0.9 4.3 0.00 0.00 0.00 92 1007.7
20260509091510 69 113 0.9 5.2 0.00 0.00 0.00 91 1007.4
20260509090008 69 131 0.9 7.0 0.00 0.00 0.00 90 1007.8
20260509084502 69 221 0.9 6.1 0.00 0.00 0.00 90 1008.3
20260509083121 69 177 1.7 4.3 0.00 0.00 0.00 89 1008.6
20260509081556 70 111 0.9 3.5 0.00 0.00 0.00 89 1009.6
20260509080059 70 129 0.0 1.7 0.00 0.00 0.00 89 1010.1
20260509074611 69 247 0.0 0.9 0.00 0.00 0.00 89 1010.3
20260509073106 69 137 0.0 0.9 0.00 0.00 0.00 89 1010.7
20260509071558 69 136 0.0 0.9 0.00 0.00 0.00 89 1010.9
20260509070056 69 137 0.0 0.9 0.00 0.00 0.00 88 1010.4
20260509064550 69 134 0.0 1.7 0.00 0.00 0.00 87 1010.1
20260509063059 70 73 0.0 1.7 0.00 0.00 0.00 87 1009.7
20260509061545 70 165 0.0 0.9 0.00 0.00 0.00 86 1010.2
20260509054544 71 245 0.0 0.9 0.00 0.00 0.00 85 1010.5
20260509053054 70 250 0.9 0.9 0.00 0.00 0.00 85 1010.9
20260509051546 70 8 0.0 0.9 0.00 0.00 0.00 85 1011.0
20260509050039 71 109 0.0 2.6 0.00 0.00 0.00 84 1010.1
20260509044538 71 247 0.9 4.3 0.00 0.00 0.00 83 1009.7
20260509043044 72 122 0.9 6.1 0.00 0.00 0.00 82 1009.1
20260509041536 72 167 0.0 1.7 0.00 0.00 0.00 81 1010.6
20260509040045 72 145 0.0 0.9 0.00 0.00 0.00 81 1010.8
20260509034536 72 124 0.0 0.0 0.00 0.00 0.00 81 1010.9
20260509033047 72 122 0.0 0.9 0.00 0.00 0.00 81 1010.2
20260509031533 72 121 0.0 3.5 0.00 0.00 0.00 81 1010.0